Change the Weather History Date:

Friday, October 11, 2013

  Actual Average Record
Temperature  
Mean Temperature 42 °F -  
Max Temperature 51 °F 57 °F 72 °F (1999)
Min Temperature 37 °F 43 °F 30 °F (2008)
Degree Days  
Heating Degree Days 22    
Moisture  
Dew Point 38 °F    
Average Humidity 90    
Maximum Humidity 100    
Minimum Humidity 74    
Precipitation  
Precipitation 0.00 in - - ()
Sea Level Pressure  
Sea Level Pressure 30.07 in    
Wind  
Wind Speed 5 mph (North)    
Max Wind Speed 12 mph    
Max Gust Speed -    
Visibility 7 miles    
Events Fog    
Averages and records for this station are not official NWS values.
T = Trace of Precipitation, MM = Missing Value Source: NWS Daily Summary

Daily Weather History Graph

Daily Weather History Graph

Search for Another Location

Airport or City:

Trip Planner

Search our weather history database for the weather conditions in past years. The results will help you decide how hot, cold, wet, or windy it might be!

Date:

Astronomy

Oct. 11, 2013 Rise Set
Actual Time 7:22 AM PDT 6:37 PM PDT
Civil Twilight 6:54 AM PDT 7:05 PM PDT
Nautical Twilight 6:21 AM PDT 7:38 PM PDT
Astronomical Twilight 5:48 AM PDT 8:10 PM PDT
Moon 2:12 PM PDT (10/11) No Moon Set
Length of Visible Light 12h 11m
Length of Day
11h 14m
Waxing Crescent, 48% of the Moon is Illuminated
Oct 11
Waxing Crescent
Oct 11
First Quarter
Oct 18
Full
Oct 26
Last Quarter
Nov 3
New

Hourly Weather History & Observations

Time (PDT) Temp. Windchill Dew Point Humidity Pressure Visibility Wind Dir Wind Speed Gust Speed Precip Events Conditions
12:56 AM 41.0 °F 34.7 °F 37.9 °F 89% 30.05 in 10.0 mi North 10.4 mph - N/A   Clear
1:56 AM 39.0 °F 34.8 °F 37.9 °F 96% 30.07 in 2.0 mi North 5.8 mph - N/A   Scattered Clouds
1:58 AM 39.2 °F 34.2 °F 37.4 °F 93% 30.07 in 1.2 mi North 6.9 mph - N/A   Scattered Clouds
2:02 AM 39.2 °F 35.0 °F 39.2 °F 100% 30.07 in 0.2 mi North 5.8 mph - N/A Fog Fog
2:21 AM 41.0 °F 39.0 °F 35.6 °F 81% 30.07 in 1.2 mi East 3.5 mph - N/A   Haze
2:25 AM 41.0 °F - 35.6 °F 81% 30.07 in 9.0 mi Calm Calm - N/A   Scattered Clouds
2:56 AM 39.9 °F 37.8 °F 36.0 °F 86% 30.05 in 10.0 mi NNE 3.5 mph - N/A   Clear
3:24 AM 39.2 °F 35.9 °F 37.4 °F 93% 30.07 in 1.2 mi North 4.6 mph - N/A   Partly Cloudy
3:31 AM 39.2 °F 37.0 °F 37.4 °F 93% 30.07 in 0.5 mi East 3.5 mph - N/A Fog Fog
3:36 AM 42.8 °F - 35.6 °F 76% 30.07 in 1.8 mi Calm Calm - N/A   Haze
3:43 AM 42.8 °F - 35.6 °F 76% 30.07 in 10.0 mi Calm Calm - N/A   Partly Cloudy
3:56 AM 42.1 °F - 35.1 °F 76% 30.05 in 10.0 mi Calm Calm - N/A   Clear
4:05 AM 39.2 °F - 35.6 °F 87% 30.06 in 1.5 mi Calm Calm - N/A   Partly Cloudy
4:15 AM 41.0 °F - 35.6 °F 81% 30.07 in 4.0 mi Calm Calm - N/A   Haze
4:56 AM 39.9 °F - 36.0 °F 86% 30.06 in 10.0 mi Calm Calm - N/A   Clear
5:56 AM 39.0 °F - 36.0 °F 89% 30.08 in 10.0 mi Calm Calm - N/A   Clear
6:13 AM 37.4 °F 33.8 °F 37.4 °F 100% 30.07 in 1.2 mi North 4.6 mph - N/A   Partly Cloudy
6:16 AM 37.4 °F 33.8 °F 37.4 °F 100% 30.07 in 0.2 mi North 4.6 mph - N/A Fog Fog
6:56 AM 37.9 °F 32.1 °F 37.9 °F 100% 30.09 in 0.2 mi North 8.1 mph - N/A Fog Fog
7:14 AM 37.4 °F 32.1 °F 37.4 °F 100% 30.08 in 1.2 mi North 6.9 mph - N/A   Mostly Cloudy
7:16 AM 37.4 °F 32.8 °F 37.4 °F 100% 30.08 in 2.0 mi North 5.8 mph - N/A   Mostly Cloudy
7:24 AM 37.4 °F 32.8 °F 37.4 °F 100% 30.08 in 3.0 mi North 5.8 mph - N/A   Scattered Clouds
7:27 AM 37.4 °F 33.8 °F 37.4 °F 100% 30.08 in 1.2 mi North 4.6 mph - N/A   Scattered Clouds
7:34 AM 37.4 °F 32.8 °F 37.4 °F 100% 30.08 in 0.8 mi North 5.8 mph - N/A   Mist
7:49 AM 37.4 °F 34.9 °F 37.4 °F 100% 30.08 in 1.2 mi North 3.5 mph - N/A   Scattered Clouds
7:51 AM 37.4 °F 33.8 °F 37.4 °F 100% 30.08 in 4.0 mi North 4.6 mph - N/A   Scattered Clouds
7:56 AM 37.9 °F 34.4 °F 37.0 °F 97% 30.09 in 8.0 mi North 4.6 mph - N/A   Partly Cloudy
8:56 AM 43.0 °F - 39.0 °F 86% 30.09 in 10.0 mi Calm Calm - N/A   Clear
9:56 AM 46.0 °F 44.8 °F 39.9 °F 79% 30.08 in 10.0 mi Variable 3.5 mph - N/A   Clear
10:56 AM 45.0 °F 42.6 °F 39.0 °F 80% 30.08 in 10.0 mi SE 4.6 mph - N/A   Clear
11:56 AM 48.0 °F - 39.9 °F 74% 30.08 in 10.0 mi Variable 3.5 mph - N/A   Clear
12:56 PM 48.9 °F - 42.1 °F 77% 30.08 in 10.0 mi Calm Calm - N/A   Clear
1:56 PM 48.9 °F - 42.1 °F 77% 30.06 in 10.0 mi Calm Calm - N/A   Clear
2:56 PM 48.9 °F - 42.1 °F 77% 30.07 in 10.0 mi NW 4.6 mph - N/A   Clear
3:56 PM 48.9 °F - 43.0 °F 80% 30.07 in 10.0 mi Calm Calm - N/A   Mostly Cloudy
4:54 PM 46.4 °F 44.3 °F 42.8 °F 87% 30.09 in 10.0 mi Variable 4.6 mph - N/A   Scattered Clouds
4:56 PM 46.0 °F 44.8 °F 42.1 °F 86% 30.09 in 10.0 mi Variable 3.5 mph - N/A   Mostly Cloudy
5:15 PM 46.4 °F 43.5 °F 41.0 °F 81% 30.07 in 10.0 mi Variable 5.8 mph - N/A   Partly Cloudy
5:56 PM 43.0 °F 39.5 °F 41.0 °F 93% 30.09 in 10.0 mi North 5.8 mph - N/A   Clear
6:56 PM 42.1 °F 39.2 °F 39.9 °F 92% 30.08 in 10.0 mi NNW 4.6 mph - N/A   Clear
7:33 PM 41.0 °F 35.2 °F 39.2 °F 93% 30.07 in 10.0 mi NNW 9.2 mph - N/A   Mostly Cloudy
7:46 PM 41.0 °F 35.2 °F 39.2 °F 93% 30.07 in 7.0 mi North 9.2 mph - N/A   Overcast
7:56 PM 41.0 °F 34.7 °F 39.9 °F 96% 30.09 in 7.0 mi NNW 10.4 mph - N/A   Overcast
8:28 PM 39.2 °F 32.0 °F 39.2 °F 100% 30.07 in 9.0 mi NNW 11.5 mph - N/A   Partly Cloudy
8:56 PM 39.9 °F 33.4 °F 39.0 °F 97% 30.08 in 10.0 mi North 10.4 mph - N/A   Scattered Clouds
9:09 PM 39.2 °F 33.6 °F 39.2 °F 100% 30.07 in 10.0 mi North 8.1 mph - N/A   Mostly Cloudy
9:22 PM 39.2 °F 34.2 °F 39.2 °F 100% 30.07 in 10.0 mi North 6.9 mph - N/A   Scattered Clouds
9:56 PM 39.0 °F 34.0 °F 39.0 °F 100% 30.07 in 10.0 mi North 6.9 mph - N/A   Clear
10:56 PM 39.0 °F 34.0 °F 37.9 °F 96% 30.08 in 10.0 mi NNW 6.9 mph - N/A   Clear
11:56 PM 39.0 °F 35.7 °F 37.0 °F 93% 30.05 in 10.0 mi NNW 4.6 mph - N/A   Clear